CW1490 Weather Reports


time (UTC)temp
F
wind
direction
speed
knots
gust
knots
rain 1hr
in
rain 24hr
in
rain mn
in
humidity
%
barometer
mb
20260508091006 34 232 1.7 2.6 0.00 0.00 0.00 91 1010.2
20260508090504 34 238 0.9 2.6 0.00 0.00 0.00 91 1010.2
20260508090011 33 238 1.7 2.6 0.00 0.00 0.00 91 1010.2
20260508085503 33 215 1.7 2.6 0.00 0.00 0.00 91 1010.2
20260508085003 33 254 1.7 2.6 0.00 0.00 0.00 91 1010.1
20260508084504 33 247 0.9 1.7 0.00 0.00 0.00 91 1010.0
20260508084003 33 137 0.0 0.9 0.00 0.00 0.00 91 1009.9
20260508083502 33 146 0.0 0.9 0.00 0.00 0.00 91 1009.9
20260508083002 33 51 0.0 1.7 0.00 0.00 0.00 91 1009.8
20260508082502 33 178 0.0 1.7 0.00 0.00 0.00 91 1009.7
20260508082002 34 221 0.0 2.6 0.00 0.00 0.00 91 1009.8
20260508081504 34 254 0.9 2.6 0.00 0.00 0.00 91 1009.8
20260508081003 33 265 0.9 2.6 0.00 0.00 0.00 91 1009.8
20260508080505 33 265 0.9 2.6 0.00 0.00 0.00 91 1009.9
20260508080004 33 232 0.9 2.6 0.00 0.00 0.00 91 1009.9
20260508075507 33 232 0.9 2.6 0.00 0.00 0.00 91 1010.0
20260508075003 33 265 0.0 3.5 0.00 0.00 0.00 91 1009.8
20260508074512 33 221 1.7 3.5 0.00 0.00 0.00 91 1009.7
20260508074003 33 212 1.7 2.6 0.00 0.00 0.00 90 1009.7
20260508073507 33 196 0.9 2.6 0.00 0.00 0.00 91 1009.6
20260508073006 33 234 0.9 2.6 0.00 0.00 0.00 91 1009.5
20260508072502 33 254 0.9 2.6 0.00 0.00 0.00 90 1009.4
20260508072003 33 291 0.9 2.6 0.00 0.00 0.00 90 1009.3
20260508071505 33 265 0.9 2.6 0.00 0.00 0.00 90 1009.2
20260508071002 33 247 0.9 1.7 0.00 0.00 0.00 90 1009.2
20260508070503 33 221 0.0 1.7 0.00 0.00 0.00 90 1009.2
20260508070005 33 93 0.0 1.7 0.00 0.00 0.00 90 1009.2
20260508065503 34 265 0.0 1.7 0.00 0.00 0.00 89 1009.3
20260508065004 33 221 0.0 1.7 0.00 0.00 0.00 89 1009.2
20260508064511 33 9 0.9 1.7 0.00 0.00 0.00 89 1009.1
20260508064003 34 334 0.9 1.7 0.00 0.00 0.00 89 1009.1
20260508063506 34 265 0.9 1.7 0.00 0.00 0.00 89 1009.2
20260508063005 34 309 0.0 0.9 0.00 0.00 0.00 89 1009.1
20260508062503 34 205 0.0 1.7 0.00 0.00 0.00 89 1009.2
20260508062003 34 178 0.0 1.7 0.00 0.00 0.00 89 1009.2
20260508061507 34 265 0.9 1.7 0.00 0.00 0.00 88 1009.2
20260508061006 35 51 0.9 2.6 0.00 0.00 0.00 88 1009.2
20260508060502 35 291 0.9 2.6 0.00 0.00 0.00 88 1009.2
20260508060004 35 236 1.7 2.6 0.00 0.00 0.00 88 1009.2
20260508055504 35 200 0.9 2.6 0.00 0.00 0.00 88 1009.3
20260508055006 35 217 1.7 2.6 0.00 0.00 0.00 87 1009.3
20260508054509 35 234 1.7 2.6 0.00 0.00 0.00 87 1009.3
20260508054003 36 221 0.9 2.6 0.00 0.00 0.00 87 1009.3
20260508053504 36 247 0.9 2.6 0.00 0.00 0.00 87 1009.3
20260508053007 36 255 1.7 2.6 0.00 0.00 0.00 87 1009.2
20260508052504 36 265 0.9 1.7 0.00 0.00 0.00 87 1009.3
20260508052004 36 238 0.9 1.7 0.00 0.00 0.00 87 1009.3
20260508051509 36 232 0.0 0.9 0.00 0.00 0.00 86 1009.4
20260508051003 36 221 0.0 0.9 0.00 0.00 0.00 86 1009.4
20260508050503 36 93 0.0 1.7 0.00 0.00 0.00 86 1009.5
20260508050006 37 309 0.0 1.7 0.00 0.00 0.00 86 1009.6
20260508045502 36 291 0.9 1.7 0.00 0.00 0.00 86 1009.5
20260508045002 37 9 0.0 1.7 0.00 0.00 0.00 85 1009.5
20260508044514 37 309 0.0 2.6 0.00 0.00 0.00 85 1009.6
20260508044004 37 238 0.9 3.5 0.00 0.00 0.00 85 1009.6
20260508043505 37 238 1.7 3.5 0.00 0.00 0.00 85 1009.7
20260508043007 37 234 2.6 3.5 0.00 0.00 0.00 85 1009.7
20260508042507 37 227 0.9 2.6 0.00 0.00 0.00 85 1009.7
20260508042006 37 190 0.9 2.6 0.00 0.00 0.00 85 1009.7
20260508041509 38 205 0.0 2.6 0.00 0.00 0.00 84 1009.7
20260508041004 38 205 0.9 2.6 0.00 0.00 0.00 84 1009.8
20260508040507 37 221 0.0 1.7 0.00 0.00 0.00 82 1009.7
20260508040013 38 265 0.9 1.7 0.00 0.00 0.00 83 1009.7
20260508035505 38 265 0.0 2.6 0.00 0.00 0.00 82 1009.7
20260508035003 38 265 0.9 2.6 0.00 0.00 0.00 82 1009.7
20260508034517 38 255 0.9 2.6 0.00 0.00 0.00 82 1009.7
20260508034004 38 238 0.9 2.6 0.00 0.00 0.00 81 1009.7
20260508033504 38 243 0.0 1.7 0.00 0.00 0.00 82 1009.7
20260508033018 39 238 0.0 1.7 0.00 0.00 0.00 82 1009.7
20260508032504 39 221 0.9 1.7 0.00 0.00 0.00 82 1009.7
20260508032006 39 221 0.9 1.7 0.00 0.00 0.00 81 1009.7
20260508031512 39 212 0.0 1.7 0.00 0.00 0.00 82 1009.7
20260508031002 40 205 0.0 1.7 0.00 0.00 0.00 81 1009.6
20260508030503 40 238 0.0 1.7 0.00 0.00 0.00 80 1009.6
20260508030014 40 205 0.9 2.6 0.00 0.00 0.00 79 1009.6
20260508025506 40 200 0.9 2.6 0.00 0.00 0.00 79 1009.5
20260508025003 40 212 0.0 2.6 0.00 0.00 0.00 79 1009.6
20260508024518 40 255 0.9 2.6 0.00 0.00 0.00 79 1009.6
20260508024003 40 275 0.9 2.6 0.00 0.00 0.00 78 1009.5
20260508023506 40 250 0.9 3.5 0.00 0.00 0.00 78 1009.5
20260508023027 41 9 0.0 5.2 0.00 0.00 0.00 77 1009.6
20260508022504 41 51 0.9 5.2 0.00 0.00 0.00 77 1009.5
20260508022007 41 24 1.7 5.2 0.00 0.00 0.00 76 1009.5
20260508021516 42 38 0.9 5.2 0.00 0.00 0.00 76 1009.4
20260508021006 42 232 1.7 4.3 0.00 0.00 0.00 77 1009.3
20260508020505 42 247 0.9 2.6 0.00 0.01 0.00 75 1009.4
20260508020017 42 9 0.0 1.7 0.00 0.02 0.00 74 1009.3
20260508015503 42 265 0.0 4.3 0.00 0.02 0.00 72 1009.2
20260508015003 43 309 0.9 4.3 0.00 0.03 0.00 70 1009.1
20260508014515 44 232 2.6 4.3 0.00 0.03 0.00 71 1009.0
20260508014007 44 241 1.7 4.3 0.00 0.03 0.00 70 1009.0
20260508013508 44 238 2.6 3.5 0.00 0.03 0.00 69 1008.9
20260508013020 45 265 1.7 3.5 0.00 0.03 0.00 69 1008.8
20260508012506 45 250 2.6 4.3 0.00 0.03 0.00 69 1008.6
20260508012004 46 247 1.7 4.3 0.00 0.03 0.00 70 1008.6
20260508011510 46 238 0.9 3.5 0.00 0.03 0.00 67 1008.5
20260508011005 46 214 1.7 3.5 0.00 0.03 0.00 68 1008.5
20260508010503 46 205 0.9 3.5 0.00 0.03 0.00 66 1008.6
20260508010027 47 221 1.7 3.5 0.00 0.03 0.00 66 1008.5
20260508005506 47 227 1.7 3.5 0.00 0.03 0.00 67 1008.5
20260508005010 47 225 1.7 3.5 0.00 0.03 0.00 64 1008.5
20260508004523 48 243 1.7 3.5 0.00 0.03 0.00 66 1008.3
20260508004007 48 243 0.9 2.6 0.00 0.04 0.00 61 1008.2
20260508003510 48 265 0.9 2.6 0.00 0.04 0.00 58 1008.1
20260508003022 49 238 0.9 2.6 0.00 0.05 0.00 58 1008.0
20260508002508 49 273 1.7 3.5 0.00 0.05 0.00 56 1008.0
20260508002011 50 232 0.9 3.5 0.00 0.05 0.00 53 1008.0
20260508001529 50 193 0.9 2.6 0.00 0.05 0.00 56 1008.0
20260508001007 51 153 0.9 2.6 0.00 0.05 0.00 51 1008.0
20260508000505 51 196 0.0 2.6 0.00 0.06 0.00 49 1008.0
20260508000018 51 282 1.7 2.6 0.00 0.06 0.00 53 1008.0
20260507235509 52 265 0.0 2.6 0.00 0.07 0.00 43 1008.0
20260507235008 52 51 0.9 3.5 0.00 0.08 0.00 43 1007.9
20260507234519 53 254 0.9 5.2 0.00 0.09 0.00 45 1007.8
20260507234005 54 319 0.9 5.2 0.00 0.10 0.00 42 1007.6
20260507233508 54 32 1.7 9.6 0.00 0.11 0.00 41 1007.6
20260507233023 54 325 2.6 9.6 0.00 0.13 0.00 41 1007.6
20260507232507 54 279 3.5 10.4 0.00 0.14 0.00 40 1007.5
20260507232012 55 51 0.9 12.2 0.00 0.14 0.00 40 1007.5
20260507231522 55 341 7.0 18.2 0.00 0.14 0.00 38 1007.5
20260507231007 55 311 7.8 18.2 0.00 0.14 0.00 37 1007.5
20260507230506 55 18 3.5 8.7 0.00 0.15 0.00 38 1007.5
20260507230024 56 315 1.7 13.0 0.00 0.15 0.00 40 1007.5
20260507225506 56 39 4.3 13.0 0.00 0.15 0.00 39 1007.4
20260507225007 56 257 3.5 8.7 0.00 0.15 0.00 40 1007.5
20260507224516 56 311 1.7 13.9 0.00 0.15 0.00 43 1007.5
20260507224004 56 330 4.3 13.9 0.00 0.15 0.00 38 1007.6
20260507223505 56 314 1.7 13.0 0.00 0.16 0.00 42 1007.5
20260507223021 57 221 5.2 13.0 0.00 0.16 0.00 37 1007.5
20260507222504 57 295 3.5 14.8 0.00 0.17 0.00 40 1007.4
20260507222004 57 284 3.5 14.8 0.00 0.17 0.00 40 1007.4
20260507221505 57 243 7.8 14.8 0.00 0.17 0.00 40 1007.2
20260507221002 57 243 2.6 14.8 0.00 0.17 0.00 41 1007.4
20260507220504 57 314 4.3 14.8 0.00 0.17 0.00 38 1007.4
20260507220010 57 288 6.1 13.9 0.00 0.18 0.00 38 1007.4
20260507215507 58 305 3.5 13.0 0.00 0.18 0.00 40 1007.4
20260507215007 58 315 5.2 9.6 0.00 0.19 0.00 36 1007.3
20260507214510 58 309 2.6 9.6 0.00 0.20 0.00 40 1007.3
20260507214006 57 59 2.6 9.6 0.00 0.20 0.00 41 1007.3
20260507213506 57 9 1.7 8.7 0.00 0.21 0.00 38 1007.4
20260507213027 57 19 1.7 11.3 0.00 0.21 0.00 41 1007.4
20260507212506 57 19 5.2 13.9 0.00 0.21 0.00 39 1007.4
20260507212009 57 281 5.2 13.9 0.00 0.22 0.00 39 1007.3
20260507211520 57 330 3.5 18.2 0.00 0.22 0.00 40 1007.3
20260507211003 56 346 7.0 18.2 0.00 0.22 0.00 39 1007.1
20260507210502 57 238 2.6 10.4 0.00 0.22 0.00 40 1007.2
20260507210017 57 340 4.3 7.8 0.00 0.23 0.00 43 1007.3
20260507205502 58 16 0.9 7.8 0.00 0.23 0.00 43 1007.3
20260507205004 58 335 2.6 7.8 0.00 0.23 0.00 45 1007.3
20260507204508 58 307 2.6 13.9 0.00 0.24 0.00 39 1007.3
20260507204003 58 275 5.2 15.6 0.00 0.24 0.00 39 1007.3
20260507203509 59 249 5.2 15.6 0.00 0.25 0.00 40 1007.3
20260507203018 59 334 3.5 14.8 0.00 0.25 0.00 40 1007.4
20260507202505 59 313 5.2 16.5 0.00 0.25 0.00 38 1007.4
20260507202010 59 261 4.3 20.9 0.00 0.25 0.00 37 1007.3
20260507201520 59 282 8.7 20.9 0.00 0.25 0.00 38 1007.2
20260507201007 59 319 3.5 14.8 0.00 0.26 0.00 39 1007.3
20260507200507 59 215 4.3 14.8 0.00 0.26 0.00 36 1007.2
20260507200044 60 294 8.7 14.8 0.00 0.27 0.00 35 1007.2
20260507195506 60 312 5.2 13.9 0.00 0.27 0.00 40 1007.3
20260507195005 59 31 4.3 12.2 0.00 0.27 0.00 41 1007.2
20260507194508 59 46 4.3 13.9 0.00 0.27 0.00 36 1007.2
20260507194003 58 325 4.3 17.4 0.00 0.28 0.00 42 1007.1
20260507193505 58 33 6.1 17.4 0.00 0.28 0.00 37 1007.3
20260507193020 59 280 5.2 16.5 0.00 0.28 0.00 42 1007.4
20260507192505 60 340 4.3 16.5 0.00 0.29 0.00 39 1007.2
20260507192006 58 40 7.0 20.0 0.00 0.29 0.00 36 1007.4
20260507191525 59 15 10.4 20.0 0.00 0.30 0.00 42 1007.2
20260507191006 60 254 4.3 15.6 0.00 0.31 0.00 44 1007.5
20260507190506 59 331 3.5 11.3 0.00 0.33 0.00 37 1007.6
20260507190031 59 332 5.2 14.8 0.00 0.35 0.00 40 1007.7
20260507185507 59 306 4.3 14.8 0.00 0.37 0.00 42 1007.7
20260507185007 59 27 6.1 14.8 0.00 0.38 0.00 42 1007.7
20260507184523 59 337 7.8 14.8 0.00 0.39 0.00 34 1007.8
20260507184006 59 27 7.0 13.0 0.00 0.40 0.00 36 1007.8
20260507183506 58 196 3.5 13.0 0.00 0.40 0.00 36 1007.8
20260507183008 58 269 4.3 12.2 0.00 0.40 0.00 43 1007.8
20260507182504 57 51 0.9 12.2 0.00 0.41 0.00 39 1007.9
20260507182008 57 282 7.0 13.9 0.00 0.42 0.00 41 1008.1
20260507181513 58 321 3.5 16.5 0.00 0.42 0.00 38 1008.1
20260507181005 59 347 5.2 16.5 0.00 0.43 0.00 39 1008.2
20260507180506 58 100 6.1 22.6 0.00 0.44 0.00 44 1008.2
20260507180018 59 44 8.7 22.6 0.00 0.45 0.00 39 1008.0
20260507175508 60 9 7.8 16.5 0.00 0.46 0.00 40 1008.0
20260507175012 59 282 3.5 13.9 0.00 0.47 0.00 42 1008.0
20260507174524 58 198 2.6 13.9 0.00 0.48 0.00 48 1008.1
20260507174011 58 30 4.3 11.3 0.00 0.49 0.00 45 1008.0
20260507173512 58 72 4.3 9.6 0.00 0.50 0.00 43 1008.0
20260507173026 58 298 3.5 14.8 0.00 0.51 0.00 40 1008.1
20260507172509 58 319 7.0 14.8 0.00 0.52 0.00 41 1008.1
20260507172011 58 238 1.7 9.6 0.00 0.52 0.00 48 1008.0
20260507171513 57 93 4.3 15.6 0.00 0.52 0.00 42 1008.0
20260507171010 58 306 7.8 15.6 0.00 0.54 0.00 43 1008.1
20260507170505 59 210 2.6 15.6 0.00 0.55 0.00 39 1008.1
20260507170016 59 53 6.1 15.6 0.00 0.56 0.00 49 1008.3
20260507165507 58 338 5.2 15.6 0.00 0.56 0.00 44 1008.6
20260507165007 58 38 9.6 15.6 0.00 0.57 0.00 43 1008.7
20260507164520 59 325 7.0 14.8 0.00 0.58 0.00 51 1008.7
20260507164009 58 309 2.6 14.8 0.00 0.58 0.00 53 1008.8
20260507163512 57 34 7.8 14.8 0.00 0.58 0.00 54 1009.0
20260507163026 56 55 6.1 11.3 0.00 0.58 0.00 47 1009.1
20260507162514 57 15 2.6 11.3 0.00 0.58 0.00 52 1009.2
20260507162009 57 23 4.3 11.3 0.00 0.60 0.00 55 1009.1
20260507161525 55 259 1.7 13.9 0.00 0.60 0.00 49 1009.2
20260507161008 57 309 1.7 16.5 0.00 0.60 0.00 43 1009.1
20260507160509 57 347 9.6 16.5 0.00 0.60 0.00 45 1009.1
20260507160021 58 20 6.1 15.6 0.00 0.60 0.00 50 1009.1
20260507155504 57 44 6.1 24.3 0.00 0.60 0.00 47 1009.1
20260507155006 57 347 11.3 24.3 0.00 0.60 0.00 43 1009.3
20260507154522 56 31 9.6 20.0 0.00 0.60 0.00 47 1009.3
20260507154011 56 69 9.6 20.0 0.00 0.60 0.00 48 1009.5
20260507153508 56 33 8.7 17.4 0.00 0.60 0.00 48 1009.7
20260507153022 56 146 7.0 17.4 0.00 0.60 0.00 46 1009.6
20260507152508 56 34 4.3 18.2 0.00 0.60 0.00 44 1009.6
20260507152013 55 24 11.3 17.4 0.00 0.60 0.00 43 1009.6
20260507151527 56 323 5.2 15.6 0.00 0.60 0.00 53 1009.7
20260507151008 55 338 8.7 18.2 0.00 0.60 0.00 48 1009.5
20260507150508 55 47 8.7 18.2 0.00 0.60 0.00 48 1009.7
20260507150027 55 61 9.6 29.5 0.00 0.60 0.00 47 1009.6
20260507145511 55 115 7.0 29.5 0.00 0.60 0.00 50 1009.7
20260507145010 55 338 8.7 20.0 0.00 0.60 0.00 49 1009.8
20260507144525 55 36 9.6 23.5 0.00 0.60 0.00 50 1009.8
20260507144005 54 17 8.7 23.5 0.00 0.60 0.00 50 1009.7
20260507143512 54 43 8.7 22.6 0.00 0.60 0.00 47 1009.7
20260507143022 55 329 8.7 18.2 0.00 0.60 0.00 46 1009.8
20260507142509 54 9 8.7 17.4 0.00 0.60 0.00 50 1009.7
20260507142010 54 330 9.6 18.2 0.00 0.60 0.00 48 1009.7
20260507141528 54 36 13.9 20.0 0.00 0.60 0.00 50 1009.6
20260507141012 54 39 11.3 24.3 0.00 0.60 0.00 54 1009.6
20260507140510 54 55 12.2 24.3 0.00 0.60 0.00 52 1009.6
20260507140032 54 332 13.0 24.3 0.00 0.60 0.00 49 1009.7
20260507135507 54 347 10.4 18.2 0.00 0.60 0.00 51 1009.7
20260507135009 54 21 5.2 12.2 0.00 0.60 0.00 56 1009.4
20260507134526 54 28 3.5 11.3 0.00 0.60 0.00 56 1009.5
20260507134001 53 323 3.5 12.2 0.00 0.60 0.00 58 1009.5
20260507133502 53 265 5.2 14.8 0.00 0.60 0.00 58 1009.6
20260507133007 52 53 8.7 15.6 0.00 0.60 0.00 54 1009.5
20260507132503 52 259 4.3 15.6 0.00 0.60 0.00 58 1009.6
20260507132001 52 338 4.3 8.7 0.00 0.60 0.00 58 1009.6
20260507131529 52 300 3.5 7.0 0.00 0.60 0.00 60 1009.5
20260507131005 53 208 1.7 7.8 0.00 0.60 0.00 62 1009.4
20260507130503 53 205 1.7 9.6 0.00 0.60 0.00 61 1009.3
20260507130019 53 254 5.2 9.6 0.00 0.60 0.00 64 1009.4
20260507125506 52 309 6.1 12.2 0.00 0.60 0.00 64 1009.3
20260507125004 52 108 0.9 12.2 0.00 0.60 0.00 64 1009.5
20260507124516 52 335 3.5 12.2 0.00 0.60 0.00 67 1009.5
20260507124007 51 20 4.3 12.2 0.00 0.60 0.00 70 1009.5
20260507123511 51 311 4.3 9.6 0.00 0.60 0.00 70 1009.5
20260507123026 50 265 2.6 10.4 0.00 0.60 0.00 74 1009.4
20260507122504 49 338 4.3 10.4 0.00 0.60 0.00 75 1009.4
20260507122004 49 344 2.6 5.2 0.00 0.60 0.00 79 1009.4
20260507121503 49 129 1.7 6.1 0.00 0.60 0.00 83 1009.2
20260507121004 48 93 1.7 6.1 0.00 0.60 0.00 88 1009.3
20260507120502 48 238 1.7 5.2 0.00 0.60 0.00 90 1009.0
20260507120010 48 130 2.6 4.3 0.00 0.60 0.00 89 1008.9
20260507115505 48 142 0.9 2.6 0.00 0.60 0.00 87 1008.7
20260507115006 48 291 0.9 2.6 0.00 0.60 0.00 84 1008.7
20260507114510 48 291 0.9 3.5 0.00 0.60 0.00 84 1008.8
20260507114003 49 286 0.9 3.5 0.00 0.60 0.00 84 1008.8
20260507113504 49 254 0.9 4.3 0.00 0.60 0.00 85 1008.9
20260507113019 48 275 1.7 4.3 0.00 0.60 0.00 85 1008.8
20260507112508 49 178 0.9 3.5 0.00 0.60 0.00 86 1008.9
20260507112009 49 232 1.7 7.8 0.00 0.60 0.00 86 1009.0
20260507111520 49 255 3.5 8.7 0.00 0.60 0.00 86 1009.0
20260507111006 49 247 5.2 8.7 0.00 0.60 0.00 86 1008.8
20260507110507 49 257 1.7 7.0 0.00 0.60 0.00 89 1008.8
20260507110005 48 277 1.7 7.0 0.00 0.60 0.00 91 1008.7
20260507105503 47 282 2.6 7.8 0.00 0.60 0.00 94 1008.6
20260507105004 46 221 2.6 7.8 0.00 0.60 0.00 94 1008.5
20260507104508 45 280 3.5 6.1 0.00 0.60 0.00 94 1008.3
20260507104004 45 9 0.9 3.5 0.00 0.60 0.00 94 1008.3
20260507103504 45 51 0.0 3.5 0.00 0.60 0.00 94 1008.2
20260507103012 45 243 0.9 2.6 0.00 0.60 0.00 94 1008.2
20260507102504 45 330 0.0 3.5 0.00 0.60 0.00 94 1008.2
20260507102006 45 221 0.9 3.5 0.00 0.60 0.00 94 1008.0
20260507101518 45 178 0.9 2.6 0.00 0.60 0.00 94 1008.0
20260507101008 45 229 1.7 3.5 0.00 0.60 0.00 94 1008.0
20260507100509 44 217 1.7 3.5 0.00 0.60 0.00 94 1008.1
20260507100022 44 221 0.0 2.6 0.00 0.60 0.00 94 1008.1
20260507095506 44 26 0.9 2.6 0.00 0.60 0.00 94 1008.0
20260507095007 44 265 0.9 4.3 0.00 0.60 0.00 94 1008.2
20260507094506 44 51 0.9 4.3 0.00 0.60 0.00 94 1008.1
20260507094003 45 51 0.9 3.5 0.00 0.60 0.00 94 1008.2
20260507093503 45 193 0.0 3.5 0.00 0.60 0.00 94 1008.3
20260507093010 45 221 0.9 5.2 0.00 0.60 0.00 94 1008.4
20260507092505 45 314 1.7 5.2 0.00 0.60 0.00 94 1008.1
20260507092004 45 183 2.6 5.2 0.00 0.60 0.00 94 1008.1
20260507091510 45 282 1.7 3.5 0.00 0.60 0.00 94 1008.4